Montreal Mirabel, Quebec

6:52 PM EDT on October 22, 2017 (GMT -0400)
Montreal Mirabel

Weather History for CYMX - November, 2013

Change the Weather History Date:

Monday, November 18, 2013

  Actual Average Record
Temperature  
Mean Temperature 44 °F -  
Max Temperature 55 °F 37 °F 55 °F (2013)
Min Temperature 32 °F 25 °F 12 °F (1997)
Degree Days  
Heating Degree Days 22    
Moisture  
Dew Point 38 °F    
Average Humidity 73    
Maximum Humidity 94    
Minimum Humidity 58    
Precipitation  
Precipitation 0.00 in - - ()
Sea Level Pressure  
Sea Level Pressure 29.43 in    
Wind  
Wind Speed 14 mph ()    
Max Wind Speed 24 mph    
Max Gust Speed 44 mph    
Visibility 11.4 miles    
Events Rain , Snow    
Averages and records for this station are not official NWS values.
T = Trace of Precipitation, MM = Missing Value Source: Averaged Metar Reports

Daily Weather History Graph

Daily Weather History Graph

Search for Another Location

Airport or City:

Trip Planner

Search our weather history database for the weather conditions in past years. The results will help you decide how hot, cold, wet, or windy it might be!

Date:

Astronomy

Nov. 18, 2013 Rise Set
Actual Time 7:00 AM EST 4:22 PM EST
Civil Twilight 6:27 AM EST 4:54 PM EST
Nautical Twilight 5:51 AM EST 5:30 PM EST
Astronomical Twilight 5:16 AM EST 6:06 PM EST
Moon 5:21 PM EST (11/18) 7:47 AM EST (11/18)
Length of Visible Light 10h 27m
Length of Day
9h 22m
Full, 99% of the Moon is Illuminated
Nov 18
Full
Nov 25
Last Quarter
Dec 2
New
Dec 9
First Quarter
Dec 17
Full

Hourly Weather History & Observations

Time (EST) Temp. Windchill Dew Point Humidity Pressure Visibility Wind Dir Wind Speed Gust Speed Precip Events Conditions
12:00 AM 55.4 °F - 51.8 °F 88% 29.52 in 25.0 mi SE 10.4 mph 24.2 mph N/A Rain Light Rain Showers
1:00 AM 53.6 °F - 51.8 °F 94% 29.44 in 20.0 mi SE 15.0 mph 20.7 mph N/A Rain Light Rain Showers
2:00 AM 55.4 °F - 51.8 °F 88% 29.37 in 10.0 mi SE 9.2 mph 23.0 mph N/A Rain Light Rain Showers
3:00 AM 55.4 °F - 53.6 °F 94% 29.31 in 10.0 mi SSE 16.1 mph 23.0 mph N/A Rain Light Rain Showers
3:42 AM 55.4 °F - 53.6 °F 94% 29.35 in 4.0 mi SW 18.4 mph 25.3 mph N/A Rain Rain Showers
4:00 AM 53.6 °F - 50.0 °F 88% 29.36 in 12.0 mi SW 13.8 mph 24.2 mph N/A Rain Light Rain Showers
5:00 AM 51.8 °F - 48.2 °F 88% 29.32 in 15.0 mi SSW 15.0 mph 23.0 mph N/A Rain Light Rain Showers
5:28 AM 51.8 °F - 48.2 °F 88% 29.31 in 25.0 mi SW 15.0 mph 27.6 mph N/A   Overcast
6:00 AM 51.8 °F - 46.4 °F 82% 29.28 in 25.0 mi SW 15.0 mph 25.3 mph N/A   Overcast
6:51 AM 51.8 °F - 42.8 °F 71% 29.32 in 25.0 mi SW 16.1 mph 27.6 mph N/A Rain Light Rain Showers
7:00 AM 50.0 °F - 42.8 °F 76% 29.33 in 25.0 mi SW 13.8 mph 32.2 mph N/A Rain Light Rain Showers
7:19 AM 50.0 °F - 41.0 °F 71% 29.33 in 25.0 mi SW 24.2 mph 43.7 mph N/A   Overcast
8:00 AM 50.0 °F - 41.0 °F 71% 29.34 in 45.0 mi SW 17.3 mph 35.7 mph N/A   Overcast
9:00 AM 50.0 °F - 39.2 °F 66% 29.34 in 45.0 mi SW 18.4 mph 27.6 mph N/A   Overcast
10:00 AM 50.0 °F - 39.2 °F 66% 29.35 in 45.0 mi SW 18.4 mph 35.7 mph N/A   Overcast
11:00 AM 50.0 °F - 39.2 °F 66% 29.35 in 45.0 mi SW 19.6 mph 36.8 mph N/A Rain Light Rain Showers
12:00 PM 48.2 °F - 39.2 °F 71% 29.38 in 45.0 mi SW 13.8 mph 28.8 mph N/A Rain Light Rain Showers
1:00 PM 48.2 °F - 35.6 °F 62% 29.39 in 45.0 mi WSW 16.1 mph 32.2 mph N/A Rain Light Rain Showers
2:00 PM 48.2 °F - 33.8 °F 58% 29.40 in 45.0 mi SW 17.3 mph 29.9 mph N/A   Mostly Cloudy
3:00 PM 46.4 °F 40.7 °F 33.8 °F 62% 29.42 in 45.0 mi SW 12.7 mph 21.9 mph N/A   Mostly Cloudy
3:30 PM 46.4 °F 40.1 °F 33.8 °F 62% 29.43 in 45.0 mi SW 15.0 mph 27.6 mph N/A Rain Light Rain Showers
4:00 PM 44.6 °F 38.4 °F 33.8 °F 66% 29.44 in 45.0 mi SW 12.7 mph 26.5 mph N/A Rain Light Rain Showers
5:00 PM 41.0 °F 34.3 °F 35.6 °F 81% 29.47 in 25.0 mi West 11.5 mph 33.4 mph N/A Rain Light Rain Showers
6:00 PM 42.8 °F 35.4 °F 32.0 °F 66% 29.48 in 25.0 mi WSW 15.0 mph 26.5 mph N/A   Overcast
7:00 PM 42.8 °F 34.5 °F 30.2 °F 61% 29.49 in 25.0 mi WSW 18.4 mph 31.1 mph N/A Rain Light Rain Showers
7:34 PM 41.0 °F 32.5 °F 30.2 °F 65% 29.51 in 25.0 mi SW 17.3 mph 25.3 mph N/A   Mostly Cloudy
8:00 PM 41.0 °F 33.5 °F 30.2 °F 65% 29.52 in 25.0 mi WSW 13.8 mph 27.6 mph N/A   Mostly Cloudy
9:00 PM 39.2 °F 30.8 °F 30.2 °F 70% 29.52 in 25.0 mi WSW 15.0 mph 24.2 mph N/A   Overcast
9:31 PM 39.2 °F 31.2 °F 28.4 °F 65% 29.53 in 25.0 mi WSW 13.8 mph 27.6 mph N/A Rain Light Rain Showers
10:00 PM 39.2 °F 29.3 °F 26.6 °F 61% 29.52 in 25.0 mi WSW 20.7 mph 36.8 mph N/A Rain Light Rain Showers
10:24 PM 37.4 °F 27.5 °F 24.8 °F 60% 29.54 in 20.0 mi West 18.4 mph 32.2 mph N/A Snow Light Snow Showers
10:35 PM 37.4 °F 26.6 °F 26.6 °F 65% 29.54 in 1.5 mi West 21.9 mph 43.7 mph N/A Rain , Snow Light Rain Showers
10:45 PM 32.0 °F 21.2 °F 28.4 °F 87% 29.57 in 2.0 mi West 16.1 mph 31.1 mph N/A Snow Light Snow Showers
11:00 PM 32.0 °F 22.1 °F 26.6 °F 80% 29.57 in 20.0 mi West 13.8 mph 21.9 mph N/A Snow Light Snow Showers
11:44 PM 33.8 °F 25.8 °F 23.0 °F 65% 29.60 in 25.0 mi West 10.4 mph 23.0 mph N/A   Mostly Cloudy